Temp
16 17 17 17 17 17 16 17 15 16 16 17 18 18 18 18 19 17 16 15 15 15 12 12 13 10 11 12 11 10 8 8 7 6 6 6 6 6 5 5 5 4 4 4
13 15 16 14 16 16 17 17 17 17 16 18 18 18 17 18 18 17 16 13 11 11 11 10 9 9 10 10 10 9 9 9 8 6 6 5 6 6 5 5 4 4 4 4
9 13 13 10 12 14 15 17 16 14 15 15 15 14 12 12 11 8 9 9 9 9 8 8 8 10 9 9 9 9 8 8 8 7 6 6 6 6 5 5 4 4 4 4
8 11 9 14 16 16 15 14 11 11 9 10 9 9 9 8 8 7 6 6 6 6 6 7 7 8 8 9 9 8 8 7 7 7 6 6 7 6 5 5 5 5 4 4
7 9 11 12 13 12 11 11 9 9 9 8 8 8 8 7 7 6 6 5 5 5 6 7 8 8 8 9 9 8 7 7 7 7 7 7 7 6 6 6 6 5 5 5
6 6 7 10 10 10 10 8 8 8 8 8 7 6 9 7 6 6 6 6 5 5 6 6 6 7 7 7 7 6 7 7 8 7 7 9 9 7 7 7 6 6 5 4
6 5 6 11 10 9 7 7 8 8 8 8 7 7 7 7 6 6 5 5 5 6 6 6 6 6 6 6 6 7 7 7 7 7 8 9 9 7 7 6 5 5 5 4
6 6 6 9 9 8 8 8 9 8 8 7 7 7 7 6 6 5 5 5 5 5 5 6 6 7 6 5 6 6 7 7 7 8 8 7 6 7 6 6 6 5 4 4
8 8 8 9 9 9 9 8 8 8 8 8 7 7 6 5 5 5 4 4 4 4 4 5 6 7 6 6 5 5 5 5 6 7 8 7 5 5 5 6 5 5 4 4
8 9 9 9 8 8 8 8 8 7 7 6 6 6 6 5 5 5 5 5 5 5 4 4 5 5 6 6 5 5 5 3 5 5 6 5 5 4 4 6 5 5 5 4
7 8 8 8 8 8 8 7 6 6 6 6 6 6 6 6 6 6 6 5 5 4 4 4 4 4 4 4 5 4 4 3 2 4 4 4 4 5 4 5 8 6 5 5
6 7 7 7 7 7 7 6 6 6 6 5 5 5 5 5 4 4 5 5 5 4 4 4 4 3 3 2 2 3 2 2 1 2 2 2 3 3 3 4 5 5 5 5
7 7 7 7 7 6 6 6 6 5 4 4 4 2 2 2 2 1 2 3 4 4 3 4 3 3 3 2 2 2 1 2 1 -0 1 1 1 2 3 1 2 3 4 3
7 7 6 6 6 6 6 5 5 4 4 3 2 1 1 0 0 -0 -0 0 1 2 1 2 3 3 3 3 2 1 1 1 0 -0 -0 -0 0 1 2 3 2 2 1 2
6 6 6 6 6 5 5 4 4 3 2 1 0 -0 -0 -1 -2 -2 -2 -1 -1 0 1 2 2 3 3 3 2 1 0 -1 0 -1 -1 -1 -1 -0 2 3 2 2 0 -1
6 6 6 6 5 5 3 2 1 -1 -2 -2 -2 -2 -3 -3 -3 -3 -3 -3 -3 -2 -0 0 1 1 1 2 2 1 0 -1 -1 -2 -2 -2 -1 -0 2 2 2 2 0 -0
6 6 6 4 3 2 1 -1 -2 -3 -3 -3 -3 -3 -4 -4 -4 -4 -4 -4 -4 -4 -2 -2 -1 1 1 0 1 1 1 -1 -1 -2 -2 -2 -1 0 2 1 1 0 -1 -2
5 3 2 1 1 1 -1 -2 -3 -3 -4 -4 -4 -4 -5 -4 -5 -4 -4 -4 -4 -4 -3 -3 -3 -3 -2 -1 -0 0 1 -0 -1 -2 -2 -2 -2 0 1 0 -1 -2 -2 -3
2 2 2 1 -1 -2 -3 -3 -3 -4 -4 -4 -4 -4 -4 -4 -5 -5 -4 -5 -5 -5 -5 -5 -5 -5 -4 -3 -1 -0 1 -0 -2 -3 -3 -2 -2 -1 -0 -2 -2 -2 -3 -4
2 1 -0 -2 -3 -3 -4 -4 -3 -4 -4 -4 -5 -5 -5 -5 -5 -5 -5 -5 -5 -5 -5 -4 -4 -4 -4 -3 -2 -1 0 -1 -3 -3 -3 -2 -3 -3 -3 -3 -3 -3 -4 -4
-0 -1 -2 -2 -3 -3 -3 -3 -4 -4 -3 -4 -5 -5 -5 -5 -4 -5 -5 -5 -5 -5 -5 -3 -4 -4 -4 -3 -2 -1 -0 -2 -3 -2 -1 -1 -3 -3 -3 -4 -4 -4 -4 -5
-2 -3 -3 -3 -3 -4 -4 -4 -4 -4 -4 -5 -5 -5 -5 -5 -5 -5 -6 -5 -5 -5 -5 -4 -3 -3 -3 -2 -2 -1 -1 -2 -2 -1 -1 -2 -3 -4 -4 -4 -4 -4 -4 -5
-3 -3 -3 -3 -3 -3 -3 -3 -3 -3 -3 -4 -5 -5 -5 -5 -5 -6 -6 -5 -5 -5 -5 -4 -3 -3 -2 -2 -1 -1 -2 -2 -1 -1 -2 -1 -3 -4 -4 -4 -4 -5 -5 -4
-3 -2 -2 -3 -3 -3 -2 -2 -2 -3 -3 -4 -5 -5 -5 -5 -6 -6 -6 -5 -5 -5 -5 -5 -4 -4 -3 -2 -2 -2 -2 -1 -1 -1 -1 -1 -3 -3 -4 -3 -4 -5 -5 -4
-2 -3 -3 -3 -3 -2 -1 -2 -3 -3 -4 -4 -5 -5 -5 -6 -6 -6 -6 -6 -5 -5 -5 -5 -5 -5 -5 -4 -3 -3 -2 -1 -2 -2 -1 -1 -1 -2 -3 -3 -4 -5 -4 -5
-3 -2 -2 -2 -2 -2 -2 -3 -4 -5 -6 -6 -6 -5 -5 -5 -5 -6 -6 -6 -6 -6 -5 -6 -5 -5 -4 -4 -4 -3 -3 -3 -3 -2 -2 -2 -3 -3 -2 -3 -4 -4 -6 -6
-2 -2 -2 -2 -2 -2 -3 -4 -5 -6 -6 -7 -6 -6 -5 -5 -5 -5 -6 -6 -6 -6 -6 -5 -5 -5 -5 -5 -5 -4 -4 -4 -3 -3 -3 -4 -4 -4 -4 -5 -5 -6 -7 -6
Height
1408 1408 1409 1409 1414 1408 1413 1412 1421 1407 1417 1402 1408 1411 1412 1412 1413 1416 1417 1420 1419 1420 1423 1429 1429 1433 1432 1433 1431 1432 1435 1438 1440 1438 1440 1443 1448 1454 1454 1456 1460 1463 1468 1471
1416 1410 1409 1414 1410 1403 1404 1402 1401 1404 1406 1405 1405 1405 1409 1407 1408 1409 1413 1415 1420 1422 1423 1424 1426 1426 1425 1427 1431 1434 1432 1433 1436 1438 1436 1439 1440 1448 1454 1453 1458 1458 1463 1468
1422 1417 1416 1422 1406 1410 1404 1398 1400 1407 1403 1404 1408 1410 1414 1413 1413 1414 1413 1416 1421 1422 1422 1420 1422 1420 1423 1424 1425 1428 1423 1429 1430 1431 1436 1437 1436 1437 1450 1451 1453 1455 1459 1462
1422 1418 1421 1393 1388 1393 1394 1396 1407 1409 1415 1416 1417 1420 1419 1417 1417 1419 1421 1420 1420 1420 1418 1419 1419 1418 1419 1419 1419 1422 1425 1426 1423 1430 1431 1434 1429 1437 1441 1445 1448 1453 1457 1458
1420 1412 1401 1396 1395 1400 1404 1407 1418 1420 1420 1420 1419 1416 1416 1417 1418 1421 1421 1422 1421 1420 1417 1413 1414 1416 1414 1413 1415 1416 1418 1425 1423 1422 1428 1425 1425 1431 1437 1438 1444 1450 1453 1457
1420 1417 1407 1396 1402 1407 1409 1412 1418 1420 1421 1420 1420 1417 1412 1414 1416 1418 1419 1418 1417 1416 1414 1412 1411 1409 1406 1406 1405 1405 1412 1415 1414 1416 1417 1418 1420 1424 1429 1433 1439 1443 1449 1456
1418 1416 1409 1398 1401 1405 1414 1416 1416 1418 1418 1417 1417 1415 1411 1414 1414 1414 1413 1412 1413 1411 1408 1408 1407 1405 1400 1397 1395 1397 1400 1404 1404 1405 1408 1410 1411 1416 1423 1429 1434 1439 1444 1450
1412 1409 1409 1398 1404 1408 1407 1409 1412 1415 1415 1415 1415 1411 1410 1410 1410 1408 1409 1409 1407 1405 1402 1400 1399 1396 1393 1391 1389 1387 1387 1390 1393 1397 1399 1401 1406 1408 1416 1422 1427 1433 1438 1442
1395 1398 1400 1402 1405 1405 1405 1405 1408 1411 1411 1410 1408 1407 1405 1404 1403 1402 1401 1399 1398 1397 1395 1393 1392 1388 1385 1384 1383 1380 1379 1381 1382 1386 1388 1391 1397 1403 1408 1414 1422 1426 1429 1435
1396 1394 1395 1398 1400 1402 1403 1403 1404 1406 1406 1405 1404 1402 1400 1397 1394 1391 1389 1388 1389 1388 1386 1385 1384 1381 1379 1375 1375 1375 1372 1374 1374 1376 1377 1383 1388 1395 1401 1404 1411 1418 1422 1427
1392 1393 1393 1395 1397 1399 1398 1399 1400 1402 1402 1400 1397 1394 1392 1389 1386 1383 1380 1378 1377 1378 1377 1375 1375 1374 1371 1368 1367 1368 1367 1364 1366 1367 1370 1374 1379 1383 1388 1395 1400 1406 1411 1418
1391 1393 1393 1393 1394 1395 1395 1397 1397 1396 1394 1392 1391 1389 1386 1382 1379 1377 1372 1370 1366 1364 1365 1365 1366 1364 1364 1363 1361 1362 1360 1357 1360 1361 1363 1366 1369 1374 1381 1391 1396 1401 1408 1413
1384 1386 1388 1389 1391 1392 1392 1392 1390 1390 1390 1388 1385 1383 1379 1377 1374 1370 1366 1363 1360 1357 1355 1354 1353 1352 1353 1353 1354 1352 1352 1349 1350 1350 1352 1355 1359 1364 1373 1382 1390 1397 1402 1407
1380 1382 1383 1385 1386 1386 1386 1386 1385 1385 1384 1384 1382 1379 1376 1372 1367 1362 1357 1353 1350 1346 1346 1343 1342 1341 1341 1342 1342 1341 1341 1339 1340 1341 1344 1348 1352 1357 1363 1369 1378 1385 1393 1400
1376 1377 1378 1379 1380 1380 1381 1382 1380 1380 1379 1378 1377 1375 1371 1367 1362 1356 1351 1347 1343 1339 1336 1335 1333 1332 1330 1331 1332 1331 1331 1332 1332 1333 1336 1340 1345 1351 1356 1363 1372 1379 1385 1393
1370 1370 1371 1373 1374 1376 1378 1377 1376 1376 1376 1374 1372 1369 1366 1362 1356 1350 1345 1340 1336 1330 1328 1326 1323 1324 1324 1322 1322 1322 1323 1326 1325 1326 1328 1333 1336 1340 1347 1355 1363 1371 1378 1384
1364 1364 1365 1368 1371 1374 1374 1374 1374 1373 1371 1369 1366 1363 1359 1354 1348 1342 1337 1333 1328 1323 1319 1316 1312 1313 1313 1314 1315 1314 1315 1318 1318 1319 1321 1324 1327 1331 1339 1347 1356 1364 1372 1378
1358 1360 1362 1365 1368 1370 1371 1370 1370 1368 1366 1364 1360 1356 1353 1348 1343 1336 1330 1324 1317 1310 1306 1300 1297 1297 1299 1301 1304 1306 1308 1311 1311 1313 1315 1319 1322 1326 1334 1342 1351 1359 1367 1373
1356 1359 1362 1364 1365 1365 1365 1365 1364 1363 1361 1359 1355 1352 1348 1343 1338 1331 1324 1317 1309 1299 1291 1286 1280 1279 1281 1287 1293 1298 1301 1304 1307 1311 1313 1315 1319 1326 1330 1339 1347 1356 1361 1368
1356 1358 1359 1360 1361 1361 1361 1361 1360 1359 1358 1355 1352 1348 1343 1338 1333 1326 1318 1311 1303 1293 1280 1270 1263 1260 1265 1274 1282 1289 1295 1298 1302 1306 1308 1312 1322 1327 1330 1339 1345 1352 1357 1362
1354 1356 1356 1357 1357 1358 1357 1357 1357 1355 1353 1351 1348 1344 1339 1334 1329 1322 1314 1304 1295 1283 1272 1264 1259 1257 1260 1267 1276 1283 1289 1293 1299 1303 1306 1312 1322 1329 1333 1337 1345 1349 1350 1356
1352 1353 1353 1354 1355 1355 1355 1354 1353 1351 1349 1347 1344 1341 1336 1331 1325 1319 1314 1305 1292 1281 1271 1265 1260 1258 1261 1267 1273 1281 1286 1292 1297 1301 1306 1313 1320 1326 1330 1336 1342 1346 1345 1351
1348 1350 1351 1352 1352 1351 1351 1350 1349 1348 1346 1344 1341 1338 1333 1329 1323 1316 1307 1301 1293 1283 1274 1269 1267 1267 1268 1272 1276 1281 1285 1291 1295 1300 1307 1313 1320 1324 1331 1334 1337 1343 1344 1347
1346 1347 1348 1349 1349 1348 1348 1348 1347 1346 1344 1341 1339 1335 1331 1326 1321 1317 1311 1304 1296 1287 1279 1273 1271 1272 1274 1276 1277 1280 1286 1290 1295 1301 1308 1313 1319 1324 1329 1331 1336 1340 1342 1344
1343 1344 1345 1346 1345 1346 1345 1344 1344 1343 1340 1338 1336 1332 1329 1325 1321 1316 1310 1304 1299 1292 1286 1281 1279 1278 1278 1279 1282 1284 1288 1293 1297 1301 1307 1312 1317 1323 1327 1329 1333 1335 1339 1342
1340 1341 1341 1343 1343 1343 1342 1341 1341 1338 1337 1335 1333 1330 1327 1324 1320 1316 1312 1307 1302 1298 1293 1288 1285 1285 1285 1286 1288 1289 1292 1295 1299 1303 1308 1313 1318 1321 1322 1325 1328 1331 1335 1339
1336 1338 1338 1340 1340 1339 1337 1337 1336 1335 1333 1332 1330 1328 1325 1322 1319 1316 1312 1309 1304 1301 1299 1296 1293 1290 1289 1289 1291 1293 1296 1298 1302 1305 1310 1314 1317 1318 1320 1323 1326 1328 1332 1333
Wind_Speed
20 22 21 17 15 20 18 17 17 22 17 24 17 17 14 25 24 13 14 19 16 18 14 23 19 15 11 20 25 24 24 21 22 23 24 24 23 21 21 21 22 21 21 18
19 23 19 18 23 25 22 19 20 18 22 18 26 31 28 21 21 11 15 10 5 8 10 9 7 9 18 15 17 22 26 27 26 24 26 23 23 23 24 25 25 23 22 21
17 19 17 14 25 24 25 25 21 19 18 15 16 16 21 18 20 20 18 10 8 6 6 11 16 17 13 14 15 19 32 31 30 29 28 27 23 23 26 26 26 24 24 23
8 12 10 14 19 18 20 12 12 8 8 9 10 14 12 17 16 18 18 17 12 13 15 15 16 14 16 16 18 18 20 32 27 31 31 33 25 27 29 28 26 26 28 25
4 9 9 12 4 4 6 1 3 3 2 6 11 14 6 10 12 11 12 14 16 17 18 18 20 25 29 38 36 35 35 31 34 34 39 33 30 31 29 28 28 27 26 25
4 4 7 6 9 7 2 6 3 3 3 6 10 6 2 12 12 13 15 16 17 17 18 20 19 19 24 31 37 37 31 31 33 36 36 32 32 34 32 29 29 27 27 26
8 5 4 10 7 2 4 2 3 7 9 10 8 9 20 19 21 20 23 22 19 20 23 21 22 22 26 27 31 36 36 33 32 41 38 40 38 37 35 33 30 28 28 26
6 6 10 13 4 4 5 7 8 10 14 17 20 22 23 25 24 23 24 25 25 27 28 28 23 25 24 29 26 24 36 39 38 43 44 43 41 42 40 36 34 34 32 29
5 2 4 4 1 7 11 14 15 18 22 21 19 21 23 28 32 30 27 31 31 31 33 31 28 27 26 28 31 28 26 34 34 43 48 43 44 46 45 41 39 38 35 33
5 6 7 10 10 14 17 18 19 16 20 24 27 30 31 33 33 32 31 30 30 30 30 33 33 23 24 29 32 30 24 28 30 40 47 43 43 48 49 46 42 41 39 37
8 11 12 16 18 18 17 16 19 22 24 27 29 30 31 33 33 34 34 34 32 33 32 31 32 34 32 25 32 31 25 24 32 34 41 44 45 48 51 48 44 46 43 40
8 14 14 17 18 19 16 19 21 24 25 24 28 32 32 30 30 33 34 36 35 34 34 36 36 32 33 26 28 27 24 21 29 34 39 43 45 44 46 46 45 45 40 37
11 14 16 18 20 19 20 22 22 19 18 23 27 26 25 27 29 34 35 34 33 35 36 36 35 34 35 36 36 33 26 21 24 32 37 41 44 46 47 45 42 40 37 35
12 15 17 21 19 19 17 18 19 18 19 20 22 26 25 27 29 30 31 32 34 31 33 32 31 36 38 39 34 33 29 26 26 30 38 42 46 48 49 47 45 41 36 32
21 20 21 21 18 17 16 18 17 19 21 20 21 22 23 25 28 31 32 32 32 31 30 27 27 35 37 38 33 30 27 27 28 33 41 43 44 48 47 44 42 40 36 32
17 19 17 17 14 14 14 15 16 19 19 18 19 20 23 25 29 31 32 30 31 35 39 36 37 33 26 35 34 30 26 28 24 37 40 44 46 48 45 42 39 37 36 35
20 18 16 10 9 10 12 14 13 15 15 17 19 22 27 29 31 32 33 31 31 33 34 36 38 37 37 31 36 31 23 29 21 36 40 43 46 46 43 39 37 36 36 35
6 2 3 4 7 11 12 11 11 12 15 18 23 25 27 29 32 34 35 37 38 38 39 44 43 40 42 38 35 35 25 29 29 37 39 42 44 41 39 37 36 36 35 34
4 4 4 6 7 8 9 10 11 13 17 18 23 27 28 28 30 33 33 37 39 39 42 38 37 35 35 38 36 37 26 27 30 34 34 34 33 34 34 36 35 35 34 33
5 5 5 5 6 7 9 11 12 16 18 19 23 27 27 28 31 32 32 36 37 40 39 36 27 24 30 36 36 34 27 28 33 32 26 21 25 30 32 32 32 34 34 30
7 7 9 10 9 10 11 11 13 16 18 20 22 24 27 28 29 30 33 38 43 41 34 27 16 13 23 36 34 32 28 30 34 30 25 24 27 28 29 29 33 33 30 27
11 10 8 8 9 9 10 11 11 15 15 17 19 21 22 27 29 29 28 33 41 38 29 21 15 8 23 29 32 28 27 32 31 27 27 26 27 30 28 30 31 31 26 24
8 9 7 7 9 10 6 7 11 12 14 15 17 19 20 23 24 27 33 34 36 33 24 16 9 8 14 19 23 25 29 31 25 24 24 22 26 29 30 29 27 28 26 24
9 7 7 7 8 7 10 8 8 11 12 14 16 18 19 22 23 23 25 26 31 28 22 18 10 3 11 18 24 29 31 26 24 26 22 21 24 24 24 22 25 26 23 23
9 7 7 8 8 9 8 9 10 11 12 15 16 16 17 18 19 22 24 23 25 26 19 13 6 3 13 18 24 26 26 24 26 27 24 20 18 19 19 19 21 21 22 24
9 10 8 6 8 9 8 7 8 11 12 13 13 14 17 16 19 19 21 25 19 21 21 16 10 3 1 5 11 15 18 22 22 22 20 18 16 13 11 15 18 20 22 24
12 11 8 7 6 6 9 11 12 12 13 13 16 13 15 16 18 19 19 21 21 16 15 15 15 14 9 5 4 6 8 11 13 14 15 14 11 10 11 12 15 20 22 21
Wind_Direction
252 259 265 273 255 252 247 257 244 262 264 274 290 292 298 293 285 310 291 309 282 246 244 247 237 238 225 218 219 209 214 221 224 205 197 192 189 197 198 199 196 194 191 189
263 260 269 275 263 264 270 261 254 248 257 261 268 277 279 296 302 284 291 277 237 198 206 209 215 251 256 237 224 206 210 226 226 217 199 206 198 205 206 201 200 192 193 195
251 252 257 262 250 258 265 263 267 261 280 318 317 338 343 350 29 39 37 40 0 1 327 288 267 265 280 269 274 258 219 218 219 211 209 210 209 203 210 205 199 196 198 194
248 262 231 258 254 253 256 254 335 304 6 1 356 338 5 39 47 38 27 15 348 326 306 285 282 274 283 274 269 264 249 243 219 223 216 213 215 215 210 206 207 203 200 196
216 225 297 296 343 352 346 185 57 16 14 338 324 310 102 46 31 17 1 340 329 328 316 303 283 266 261 265 274 266 270 257 235 226 225 217 216 216 213 209 208 206 204 203
164 228 221 106 92 53 308 247 112 35 354 338 340 327 13 356 334 327 319 315 313 311 307 304 298 291 282 273 275 262 269 268 255 227 242 246 224 216 214 213 208 204 202 206
227 247 263 272 129 87 229 14 332 314 312 310 301 294 301 301 298 298 305 301 292 290 285 284 290 276 285 284 278 267 266 263 253 235 235 243 226 215 215 208 206 205 203 206
229 248 259 122 140 232 7 322 305 300 297 292 289 290 294 297 297 297 295 291 290 291 288 279 276 272 277 288 287 292 264 258 251 246 244 242 228 215 212 209 206 205 204 206
194 185 134 124 258 276 297 302 306 297 290 295 303 301 298 298 297 292 286 285 284 281 278 276 276 260 272 279 285 293 282 255 255 245 244 238 226 215 209 209 208 207 207 209
312 278 293 300 303 300 295 292 294 310 311 305 300 298 295 292 287 281 278 278 281 278 275 275 280 279 270 263 277 288 289 261 254 244 238 234 227 217 214 209 209 210 210 212
283 276 290 290 290 289 291 306 309 300 296 292 291 290 289 286 286 288 285 279 272 272 274 277 276 274 268 285 273 279 285 271 257 249 241 232 229 222 215 217 219 217 215 217
249 256 261 268 274 281 304 302 294 290 293 305 307 302 301 302 303 303 298 290 275 266 265 268 268 269 273 275 269 272 276 279 260 243 236 232 226 219 220 220 220 220 222 224
263 264 270 285 290 289 289 285 290 302 306 311 311 313 314 309 303 305 302 295 293 275 269 265 260 259 265 263 265 268 271 278 271 246 236 229 225 218 210 213 218 220 222 223
250 256 264 265 272 279 282 287 297 296 301 303 308 308 305 304 307 307 306 305 298 287 273 274 268 262 259 262 270 272 260 267 274 252 236 226 219 216 209 211 206 208 214 219
261 260 264 272 273 277 284 288 295 305 303 302 298 304 311 311 308 306 305 300 302 304 292 287 275 274 261 260 262 270 254 259 263 243 229 223 216 214 208 209 209 210 205 207
258 259 253 255 267 281 287 312 313 303 298 300 304 306 309 310 309 310 309 307 301 288 281 281 280 272 291 264 261 258 257 254 263 235 222 214 214 210 206 207 207 210 208 209
259 252 248 272 288 296 303 305 293 289 297 303 309 308 310 316 317 318 317 314 308 298 289 283 274 269 273 271 257 248 256 244 256 232 224 216 212 205 202 202 206 206 209 211
260 272 211 234 271 284 287 285 286 291 303 309 311 313 317 318 316 316 319 323 317 308 302 297 288 273 258 252 248 242 248 246 235 220 213 207 204 198 197 200 203 205 206 208
158 188 230 255 270 272 277 283 288 297 308 315 321 321 318 316 316 318 320 325 317 312 306 304 289 274 252 238 234 232 235 241 222 206 203 199 197 199 196 198 201 205 207 208
207 228 241 257 262 272 276 281 293 301 309 312 316 320 319 322 329 328 328 320 324 316 324 319 299 261 237 221 223 223 230 227 213 201 194 199 206 202 198 198 203 204 208 213
217 245 246 258 262 277 286 297 303 305 313 312 314 318 321 323 327 333 333 327 334 338 335 331 309 266 221 205 213 210 219 215 203 196 193 201 206 200 199 199 205 208 211 213
241 239 253 262 281 290 294 303 310 315 321 318 317 321 325 329 331 338 336 336 342 344 342 337 321 233 204 206 201 202 215 202 194 194 199 203 208 206 203 202 207 208 209 213
212 233 255 261 273 289 323 324 324 325 323 329 325 330 330 332 337 340 338 349 350 350 349 353 322 244 207 195 200 208 202 193 193 199 197 207 208 206 208 208 208 214 213 216
219 234 251 260 281 288 290 295 302 319 321 334 333 333 336 337 341 347 347 352 357 2 7 10 18 304 230 217 210 204 194 188 195 192 193 206 205 208 211 215 217 216 220 219
226 234 235 241 257 281 291 298 313 314 322 329 340 339 342 345 350 346 353 357 3 10 17 18 18 166 187 195 198 198 188 199 205 194 194 196 200 209 214 218 222 222 221 219
218 224 240 244 266 280 285 293 298 304 317 320 331 333 343 348 350 356 354 357 2 12 22 28 33 55 141 199 200 201 199 203 202 193 190 190 195 209 227 229 226 223 222 221
222 227 237 245 262 261 274 289 301 313 317 321 324 342 342 342 341 352 357 358 1 8 20 31 39 43 51 75 142 186 199 197 192 190 190 194 206 226 230 239 235 225 223 222